Change the Weather History Date:

Monday, October 15, 2012

  Actual Average Record
Temperature  
Mean Temperature 58 °F 46 °F  
Max Temperature 68 °F 57 °F 80 °F (1956)
Min Temperature 47 °F 37 °F 21 °F (1980)
Degree Days  
Heating Degree Days 7 19  
Month to date heating degree days 204 239  
Since 1 July heating degree days 421 539  
Cooling Degree Days 0 0  
Month to date cooling degree days 0 0  
Year to date cooling degree days 537 361  
Growing Degree Days 9 (Base 50)    
Moisture  
Dew Point 49 °F    
Average Humidity 67    
Maximum Humidity 78    
Minimum Humidity 56    
Precipitation  
Precipitation T in 0.10 in 1.90 in (2003)
Month to date precipitation 1.98 1.65  
Year to date precipitation 24.50 27.84  
Sea Level Pressure  
Sea Level Pressure 29.57 in    
Wind  
Wind Speed 15 mph (SSW)    
Max Wind Speed 30 mph    
Max Gust Speed 41 mph    
Visibility 10 miles    
Events Rain    
T = Trace of Precipitation, MM = Missing Value Source: NWS Daily Summary

Daily Weather History Graph

Daily Weather History Graph

Search for Another Location

Airport or City:

Trip Planner

Search our weather history database for the weather conditions in past years. The results will help you decide how hot, cold, wet, or windy it might be!

Date:

Astronomy

Oct. 15, 2012 Rise Set
Actual Time 7:15 AM EDT 6:13 PM EDT
Civil Twilight 6:46 AM EDT 6:43 PM EDT
Nautical Twilight 6:12 AM EDT 7:17 PM EDT
Astronomical Twilight 5:38 AM EDT 7:51 PM EDT
Moon 7:25 AM EDT (10/15) 6:07 PM EDT (10/15)
Length of Visible Light 11h 57m
Length of Day
10h 58m
New Moon, 0% of the Moon is Illuminated
Oct 15
New Moon
Oct 21
First Quarter
Oct 29
Full
Nov 6
Last Quarter
Nov 13
New

Hourly Weather History & Observations

Time (EDT) Temp. Dew Point Humidity Pressure Visibility Wind Dir Wind Speed Gust Speed Precip Events Conditions
12:53 AM 52.0 °F 51.1 °F 97% 29.66 in 4.0 mi Calm Calm - 0.01 in Rain Light Rain
1:53 AM 52.0 °F 51.1 °F 97% 29.62 in 7.0 mi Calm Calm - 0.00 in   Overcast
2:53 AM 63.0 °F 55.9 °F 78% 29.59 in 10.0 mi South 13.8 mph 23.0 mph 0.00 in   Overcast
3:53 AM 63.0 °F 55.9 °F 78% 29.55 in 10.0 mi South 10.4 mph - N/A   Partly Cloudy
4:53 AM 62.1 °F 55.0 °F 78% 29.55 in 10.0 mi South 10.4 mph - N/A   Scattered Clouds
5:53 AM 62.1 °F 54.0 °F 75% 29.52 in 10.0 mi South 6.9 mph - N/A   Mostly Cloudy
6:53 AM 62.1 °F 53.1 °F 72% 29.50 in 10.0 mi South 9.2 mph - N/A   Partly Cloudy
7:53 AM 64.0 °F 53.1 °F 67% 29.48 in 10.0 mi South 11.5 mph - N/A   Mostly Cloudy
8:53 AM 68.0 °F 54.0 °F 61% 29.48 in 10.0 mi SSW 24.2 mph 33.4 mph N/A   Clear
9:53 AM 66.9 °F 55.0 °F 66% 29.50 in 10.0 mi SSW 23.0 mph 36.8 mph N/A   Overcast
10:53 AM 61.0 °F 52.0 °F 72% 29.56 in 10.0 mi SW 20.7 mph 33.4 mph N/A   Overcast
11:11 AM 60.8 °F 51.8 °F 72% 29.56 in 10.0 mi SW 16.1 mph 29.9 mph N/A   Overcast
11:25 AM 60.8 °F 51.8 °F 72% 29.56 in 10.0 mi SW 27.6 mph 36.8 mph N/A   Overcast
11:53 AM 61.0 °F 48.9 °F 64% 29.57 in 10.0 mi SW 20.7 mph 38.0 mph N/A   Overcast
12:53 PM 62.1 °F 46.9 °F 58% 29.57 in 10.0 mi WSW 21.9 mph 31.1 mph N/A   Overcast
1:53 PM 62.6 °F 46.4 °F 55% 29.57 in 10.0 mi SW 15.0 mph 32.2 mph N/A   Overcast
2:53 PM 59.0 °F 46.9 °F 64% 29.60 in 10.0 mi SW 21.9 mph 29.9 mph N/A   Overcast
3:53 PM 60.1 °F 46.0 °F 60% 29.59 in 10.0 mi SW 24.2 mph 33.4 mph N/A   Overcast
4:53 PM 55.9 °F 48.0 °F 75% 29.59 in 10.0 mi SSW 15.0 mph 25.3 mph N/A   Overcast
5:53 PM 55.0 °F 46.9 °F 74% 29.60 in 10.0 mi SW 13.8 mph 23.0 mph N/A   Clear
6:53 PM 54.0 °F 46.0 °F 75% 29.60 in 10.0 mi SSW 12.7 mph 19.6 mph N/A   Partly Cloudy
7:53 PM 53.1 °F 45.0 °F 74% 29.61 in 10.0 mi SSW 15.0 mph 20.7 mph N/A   Overcast
8:53 PM 54.0 °F 42.1 °F 64% 29.61 in 10.0 mi SW 15.0 mph 23.0 mph N/A   Overcast
9:53 PM 53.1 °F 41.0 °F 64% 29.61 in 10.0 mi WSW 16.1 mph 21.9 mph N/A   Overcast
10:53 PM 50.0 °F 37.0 °F 61% 29.62 in 10.0 mi SW 11.5 mph 24.2 mph N/A   Overcast
11:53 PM 46.9 °F 36.0 °F 66% 29.63 in 10.0 mi SW 15.0 mph 23.0 mph N/A   Partly Cloudy